Wind_Speed
66 67 67 68 69 70 71 71 72 72 73 74 75 75 75 76 77 78 79 80 81 83 84 86 87 87 88 89 90 91 93 94 95 96 97 98 100 102 103 105 106 108 110 113 116 119 122 125 128 131 134 136 139 142 144 145 146 147 148 149 150 150 150 151 151 151 151 152 153 153 154 154 154 154 154 154 154 153 153 153 153 152 152 151 151
63 64 65 66 67 68 68 69 69 70 71 71 72 72 72 73 74 74 76 77 79 80 82 83 83 84 85 86 87 88 90 91 91 93 94 96 97 99 100 101 103 104 106 108 110 112 114 116 119 121 124 126 129 133 136 139 141 143 145 147 149 151 152 153 153 153 153 154 155 156 156 156 157 157 157 157 157 157 157 157 157 157 156 156 155
60 61 61 62 63 64 64 64 65 66 66 67 67 67 68 68 69 70 71 73 74 76 77 78 78 79 79 80 82 83 85 85 86 88 89 91 92 94 95 97 99 101 103 104 106 108 110 112 114 116 118 120 122 125 128 131 133 135 137 139 142 145 147 149 151 152 153 154 155 157 158 158 159 159 159 160 160 160 161 160 161 160 160 160 160
57 58 58 58 59 60 60 60 60 61 61 62 62 62 62 62 62 64 65 67 69 70 71 72 72 73 74 75 77 78 79 80 81 82 84 85 87 88 90 92 95 97 98 100 102 104 106 108 110 112 114 116 118 121 123 126 128 130 132 134 136 138 140 142 144 145 147 149 151 153 155 157 159 160 161 162 162 162 163 163 163 163 163 163 163
54 55 55 55 56 57 57 57 57 58 58 58 58 58 57 57 58 59 61 63 64 66 66 67 68 69 70 72 73 74 75 76 77 78 80 82 83 85 86 88 91 93 95 96 98 100 102 104 106 108 110 112 115 117 119 121 124 126 128 129 132 134 136 138 139 140 141 143 145 147 149 150 152 155 157 159 160 162 163 164 165 165 165 166 166
52 52 52 53 54 55 55 55 56 56 56 56 56 56 56 56 56 57 58 60 62 64 65 65 66 67 68 69 70 71 73 74 75 76 77 79 80 82 84 86 88 90 92 94 96 97 99 101 103 105 107 110 112 114 116 118 120 122 123 125 127 129 131 133 135 137 138 140 141 143 144 145 147 149 150 152 154 156 159 160 162 164 165 166 167
51 51 52 52 54 55 54 55 55 56 56 56 56 56 57 57 57 58 59 61 62 63 64 65 65 67 68 69 69 71 72 73 75 76 77 78 80 81 83 84 85 88 90 92 94 96 97 99 101 103 105 107 110 112 114 115 117 118 120 121 122 124 126 127 129 132 134 135 137 139 140 142 144 145 147 148 149 150 153 155 157 158 160 162 164
51 52 53 53 54 55 55 55 56 57 58 58 58 59 59 59 59 60 61 62 64 65 65 66 67 68 69 70 71 72 73 74 76 77 78 79 81 82 83 84 85 86 88 89 91 93 95 97 99 101 103 105 107 109 111 113 114 116 116 117 119 120 122 123 124 126 128 130 132 133 135 137 139 141 144 145 146 147 149 152 153 154 155 156 158
53 54 54 54 54 56 57 57 58 59 60 61 61 62 62 62 62 63 64 65 66 67 67 68 69 70 71 72 73 74 75 76 78 79 80 81 82 83 84 85 86 87 87 88 89 91 93 95 97 99 101 102 104 105 106 108 110 112 112 113 114 116 117 119 120 121 123 124 126 128 129 131 133 136 138 141 142 144 145 148 151 152 153 154 155
55 57 57 56 55 57 59 60 61 61 62 63 64 64 65 65 66 66 66 67 68 69 69 70 71 72 73 74 75 76 77 78 79 81 82 82 83 85 86 87 88 88 88 89 90 91 92 95 97 99 100 101 102 102 102 104 106 107 108 109 109 110 112 113 115 116 118 120 121 122 124 126 127 129 132 135 137 139 140 143 146 148 150 152 154
58 60 61 59 58 59 60 62 63 63 64 65 66 67 67 67 68 68 69 69 70 71 72 72 73 74 75 76 77 78 79 79 81 82 83 84 85 87 88 89 90 90 91 91 92 93 94 95 97 99 101 101 101 101 101 101 102 103 104 104 105 105 106 108 109 111 112 114 116 118 119 121 122 124 126 128 130 133 135 137 140 143 145 147 150
62 64 64 63 61 62 62 63 64 65 66 67 68 69 69 69 70 70 71 72 73 73 74 74 75 76 76 77 78 79 80 81 82 83 84 86 87 89 90 91 92 93 93 94 95 96 96 97 98 100 101 102 101 101 100 100 99 99 100 101 102 102 103 104 105 106 108 109 112 114 115 117 118 120 121 123 124 126 129 131 133 136 138 141 144
65 67 67 67 65 65 65 65 66 67 69 70 71 71 71 72 72 73 73 74 75 75 76 76 76 77 77 78 79 80 81 83 84 85 86 88 90 91 92 93 94 94 95 96 98 98 98 99 99 100 101 101 101 100 99 99 98 97 98 99 99 100 101 102 103 104 105 106 108 110 112 114 115 117 118 119 120 122 123 125 127 130 131 134 137
66 69 71 70 69 69 69 69 69 70 71 72 73 74 74 74 74 75 75 75 76 76 76 76 76 77 78 79 80 81 83 84 85 87 88 90 92 93 94 94 95 96 97 99 100 100 101 101 101 100 100 100 99 99 98 97 97 97 97 98 98 99 100 100 101 102 103 104 106 107 109 111 113 114 116 117 118 119 120 121 122 124 126 127 130
68 70 72 73 73 72 72 72 72 72 73 73 74 74 75 75 75 75 75 76 76 76 76 77 77 78 79 80 81 83 84 86 87 89 90 92 93 94 95 95 96 98 99 100 101 102 103 103 102 101 99 98 97 97 96 96 97 97 98 98 98 99 100 100 100 101 102 103 104 106 107 109 110 112 113 114 116 117 118 118 119 120 121 123 124
68 71 73 73 73 73 73 73 72 73 73 73 74 74 74 75 75 75 75 75 76 76 77 77 78 79 80 82 83 85 86 88 89 91 92 93 94 95 96 97 98 99 100 101 102 103 103 103 102 101 98 97 96 96 96 97 97 98 99 99 100 100 100 100 100 101 101 102 103 105 106 107 108 109 111 112 114 115 116 117 117 118 118 119 120
68 70 72 72 73 73 73 72 72 72 72 73 73 73 74 74 75 75 75 75 76 76 77 78 79 80 82 84 85 87 89 90 91 92 93 94 95 96 97 98 99 100 101 102 103 103 103 102 101 99 97 96 96 96 96 97 98 98 99 100 100 101 101 101 101 101 101 102 103 104 105 106 107 108 109 110 111 112 114 114 115 116 116 117 117
67 68 70 71 71 72 72 72 72 72 72 72 72 73 74 74 74 75 75 76 77 77 78 79 81 82 84 85 87 89 90 91 92 93 94 95 96 97 97 98 100 101 102 103 103 103 102 101 99 98 96 96 97 97 97 97 98 98 99 100 100 101 101 102 102 103 103 103 104 104 105 106 107 107 108 108 109 110 111 112 112 113 114 114 114
64 66 67 69 70 70 71 71 71 71 71 72 72 73 74 75 75 75 76 77 78 79 80 81 82 84 86 87 89 91 92 93 93 94 95 96 96 97 98 99 100 101 102 103 102 101 100 99 97 97 96 96 97 97 97 97 97 97 98 99 100 101 101 102 103 103 104 104 104 104 105 105 106 106 107 107 108 109 109 110 110 110 110 111 111
62 64 65 67 68 69 70 70 71 72 72 72 73 74 75 76 76 76 77 78 79 81 82 83 85 87 89 90 91 93 94 94 95 95 96 96 97 98 99 100 101 102 102 101 100 99 98 97 96 96 96 96 96 96 96 96 97 97 98 99 100 101 102 103 103 103 103 103 103 103 103 104 104 105 106 106 107 107 108 108 108 108 108 109 109
62 63 65 66 68 69 70 71 72 73 74 74 75 76 77 77 77 77 79 80 82 83 85 86 88 90 92 93 94 95 96 96 97 96 96 97 98 98 100 100 101 101 100 99 97 97 96 95 95 95 95 95 95 95 96 96 97 98 100 100 101 101 102 102 102 101 100 100 100 100 101 101 102 102 103 104 105 106 106 106 107 107 108 108 108
64 65 66 67 69 70 71 72 73 74 75 76 76 77 78 78 79 80 81 83 85 87 88 90 91 92 95 96 97 98 98 98 98 97 97 98 99 99 100 100 99 98 97 96 95 94 94 94 94 94 94 94 95 95 96 97 99 100 101 101 101 101 101 100 99 98 97 97 96 97 98 98 99 99 100 101 102 103 104 104 105 106 107 107 107
66 67 68 69 70 71 72 73 75 75 76 77 78 79 80 80 82 83 84 86 87 89 91 92 94 95 97 99 100 100 100 100 99 99 99 99 100 100 99 98 97 95 94 93 93 92 92 92 93 93 93 94 95 96 97 99 100 101 101 101 100 100 98 97 96 95 95 94 94 94 95 96 96 97 98 99 99 100 101 102 103 104 104 105 105
68 69 70 71 72 73 74 75 76 77 79 80 81 82 83 84 85 87 88 89 90 92 93 95 96 98 99 101 101 101 101 100 100 100 100 100 100 99 97 96 94 93 92 92 91 91 91 91 92 93 93 94 96 97 98 99 100 101 100 99 98 97 96 94 94 93 93 93 92 93 93 93 94 94 95 96 96 97 98 99 100 101 101 101 101
71 73 74 74 75 76 77 78 79 80 81 83 84 86 87 88 89 90 91 92 93 95 96 98 99 100 100 101 101 101 101 101 101 101 100 100 98 96 95 93 92 91 90 90 90 90 90 91 92 93 94 95 96 97 98 99 99 99 98 96 95 94 93 92 92 92 91 91 91 91 91 91 91 92 92 93 94 95 96 97 97 98 98 98 98
76 77 78 78 79 80 80 81 82 84 84 85 87 89 90 91 92 93 94 95 96 98 99 100 101 101 101 101 101 101 101 102 102 101 100 98 95 94 92 91 90 90 89 89 89 90 91 92 93 94 95 96 97 98 98 98 97 96 95 93 92 91 91 90 90 90 90 90 90 90 90 90 89 90 90 91 92 93 94 94 95 96 96 96 96
80 81 82 82 83 83 84 85 86 87 87 88 90 91 93 94 95 96 97 98 99 99 100 101 101 100 100 101 101 101 102 102 101 100 97 95 93 92 91 90 89 89 89 89 90 90 91 93 94 95 96 96 97 97 97 96 95 93 91 90 90 89 89 89 89 89 88 88 88 88 88 88 88 88 89 89 90 91 91 92 93 93 93 93 93
82 83 84 85 86 86 87 88 89 90 90 91 93 94 96 96 97 98 99 99 99 99 100 100 101 101 101 102 103 103 103 102 100 97 95 93 91 90 90 89 89 88 89 90 90 91 92 93 94 95 96 96 96 96 95 93 91 90 88 88 87 87 87 87 87 87 87 87 86 87 87 87 86 87 87 87 87 88 88 88 89 90 90 90 90
82 84 85 87 88 88 89 90 91 92 93 94 95 96 97 97 98 99 99 99 99 99 99 101 101 102 102 103 103 102 101 99 97 95 93 91 90 89 89 89 88 89 89 90 91 92 92 93 94 95 95 95 95 94 92 90 89 87 86 86 85 85 85 85 85 85 85 85 85 85 85 85 85 86 86 85 84 84 84 85 86 87 87 87 87
85 85 86 87 88 89 90 91 92 93 94 95 96 97 97 97 98 98 98 99 99 99 101 102 103 103 103 103 102 100 98 96 94 93 91 90 90 89 89 89 89 89 90 91 91 92 93 93 94 94 94 93 92 91 89 88 86 85 84 84 83 83 83 83 83 83 83 83 83 83 83 83 83 84 83 82 81 81 81 81 82 83 84 85 85
88 87 86 87 88 90 91 91 92 93 94 95 96 96 97 97 98 98 99 100 100 101 102 103 104 104 103 101 99 97 95 94 92 91 90 90 90 89 89 89 90 90 91 91 92 92 93 93 93 93 92 91 90 88 87 85 84 83 82 81 81 81 81 82 82 81 81 81 81 81 81 81 82 82 81 80 79 78 78 78 79 80 82 84 84
90 89 88 87 88 89 90 91 92 93 94 95 96 96 97 98 99 99 100 101 102 103 104 104 103 102 101 99 96 95 94 93 91 90 90 90 90 90 90 90 90 91 91 91 92 92 92 92 92 91 90 88 87 86 84 83 82 82 80 79 78 79 79 80 80 80 80 79 79 78 79 79 80 80 79 78 77 77 76 76 77 78 81 83 84
90 90 90 88 88 89 91 91 93 93 94 96 96 97 98 99 100 101 102 103 103 103 103 102 101 100 98 96 94 94 93 92 90 90 90 91 91 90 90 90 90 91 91 91 91 91 91 91 90 88 87 86 86 84 82 81 80 80 79 77 76 77 77 77 77 77 78 77 77 78 78 78 79 78 78 77 76 76 75 75 75 76 78 81 83
91 92 92 91 91 92 93 94 94 95 97 98 98 99 100 101 102 102 103 103 103 102 101 100 99 97 95 94 93 93 92 91 90 90 90 91 91 90 90 90 90 90 91 91 91 90 90 89 87 86 85 85 84 82 81 80 79 78 77 76 75 75 74 74 74 74 74 75 75 76 77 78 78 78 79 78 77 76 75 74 74 75 77 78 81
94 94 95 96 96 96 96 97 97 98 99 100 100 101 102 102 102 102 101 101 100 99 99 98 97 95 93 93 93 92 91 90 90 90 91 91 91 90 90 90 90 90 90 90 90 89 88 87 85 84 83 84 83 81 79 78 77 76 76 75 74 73 72 72 72 72 72 73 73 74 75 76 77 78 79 79 78 77 76 75 76 76 77 77 78
95 96 97 98 99 99 99 99 99 100 100 100 100 100 101 101 100 99 98 98 97 97 97 96 95 93 92 92 92 91 90 91 91 91 91 91 90 90 90 89 89 89 89 89 88 87 86 85 83 82 82 82 82 80 78 77 76 75 74 74 72 71 70 71 71 71 71 72 73 73 74 76 77 78 78 78 77 76 74 75 76 77 78 78 78
95 95 96 97 98 99 99 98 99 99 99 99 98 98 98 98 97 96 96 95 96 96 96 95 93 92 92 92 91 90 90 91 90 90 90 90 89 89 89 88 88 88 88 87 86 85 84 83 82 81 81 81 81 79 77 75 75 74 73 72 70 69 69 70 70 70 70 72 73 74 75 75 76 77 78 77 77 75 73 73 74 76 78 79 79
94 95 95 95 96 96 97 97 97 97 97 97 96 96 96 95 95 94 94 94 95 95 94 93 92 92 92 91 90 90 90 90 90 90 89 89 88 88 87 87 87 87 86 85 84 83 82 81 80 80 80 79 79 78 76 74 73 73 71 70 69 68 68 69 69 69 71 72 74 75 76 75 75 76 77 76 76 74 72 71 71 72 75 78 79
93 94 95 95 95 95 95 96 96 96 95 95 95 95 95 94 94 93 93 94 94 94 93 92 92 92 91 89 89 89 89 89 89 89 88 87 87 87 86 86 86 85 84 82 81 81 80 80 80 79 79 78 78 77 76 74 72 71 69 68 67 67 68 68 68 69 71 73 75 76 76 76 75 76 76 76 75 73 71 70 69 69 71 75 76
92 93 94 94 94 95 95 95 95 95 95 95 95 95 94 93 93 92 92 93 93 92 91 91 91 90 89 88 88 88 88 88 88 87 86 86 86 86 85 84 84 83 81 80 79 79 78 79 79 79 78 77 76 76 76 74 72 69 68 66 66 66 67 67 68 69 71 73 75 76 76 76 76 76 76 75 74 72 70 68 67 67 68 70 71
92 92 93 94 94 94 95 95 95 95 95 95 95 94 93 92 91 91 91 91 91 90 90 90 89 88 87 87 87 87 86 87 86 85 85 85 85 84 83 83 82 81 79 78 78 77 77 78 78 78 77 76 75 74 74 73 71 68 67 66 66 66 67 66 67 69 71 73 74 75 75 75 75 75 75 75 73 71 68 65 64 64 65 66 67
92 92 93 93 93 94 94 94 93 93 94 94 93 92 91 90 89 89 89 89 88 88 88 88 88 86 85 85 85 85 85 85 84 83 83 83 83 82 81 81 80 79 77 76 76 75 75 76 77 77 76 75 74 73 72 71 69 68 67 67 67 67 67 66 66 68 70 72 73 73 73 74 74 74 74 74 73 71 68 63 60 59 61 64 66
89 90 91 91 91 91 92 91 91 91 91 91 90 89 88 87 87 87 87 86 86 86 86 86 85 84 83 83 82 83 83 83 82 82 82 82 81 80 80 79 78 77 75 75 75 74 74 75 76 75 75 74 73 71 70 69 68 68 68 68 68 68 68 67 67 68 70 71 72 72 72 72 72 72 72 72 72 70 67 62 58 57 58 61 64
87 87 88 89 89 89 89 89 88 88 88 87 86 85 85 85 85 84 84 84 84 84 84 83 82 81 81 81 81 81 82 81 81 80 80 80 79 78 78 78 77 75 74 74 74 74 74 74 74 74 74 72 71 70 69 69 68 68 69 69 69 69 68 68 67 68 69 70 70 70 71 71 70 70 70 71 70 68 64 60 58 57 57 59 60
84 84 85 86 86 85 85 85 84 84 83 82 82 82 82 82 82 81 81 80 80 81 81 80 79 78 78 79 79 80 80 79 79 79 78 77 77 77 77 76 75 74 74 73 73 73 73 73 72 72 72 71 70 69 69 68 68 69 71 71 70 69 69 69 68 68 68 68 68 69 69 69 68 68 68 68 67 65 63 60 57 55 56 56 57
80 80 81 81 81 80 80 80 79 79 79 78 78 78 79 78 78 77 77 77 77 77 78 78 77 76 76 77 77 78 78 77 77 76 75 75 75 75 75 75 74 73 73 73 73 73 72 72 70 70 70 70 69 68 68 68 69 70 72 72 71 70 70 70 70 70 69 68 68 69 68 67 66 66 66 64 63 62 61 60 57 54 53 54 54
78 77 77 77 76 76 76 75 75 74 74 74 74 74 74 74 74 73 73 73 73 74 75 75 74 74 74 75 75 75 75 75 74 74 73 73 74 74 74 74 73 73 72 72 72 72 71 70 69 68 68 68 68 68 69 69 70 72 72 72 72 71 70 70 70 70 69 68 69 69 68 68 67 65 64 62 60 59 59 58 55 52 51 51 52
75 75 74 74 73 72 72 71 71 70 70 70 70 70 70 70 70 70 70 70 71 72 73 73 72 72 72 72 73 73 73 73 72 71 71 72 72 72 72 73 73 72 71 71 71 71 70 68 67 67 67 67 67 68 68 69 71 72 73 72 72 71 72 71 71 70 68 68 68 67 66 65 65 64 63 61 58 57 57 56 54 51 50 49 50
71 71 71 70 70 69 69 68 68 67 67 67 67 67 67 67 68 68 67 68 69 70 70 70 70 70 69 70 70 71 70 70 69 69 70 70 71 71 71 72 72 72 71 70 70 69 68 66 65 65 65 65 66 68 69 70 71 72 72 71 71 71 71 72 71 70 69 69 69 67 65 64 62 60 61 61 58 55 55 54 52 51 49 49 49
69 68 68 67 66 66 66 65 64 64 64 64 64 65 65 65 65 65 65 66 67 68 68 68 67 67 67 67 68 68 68 67 67 68 68 69 69 70 70 71 71 71 70 70 68 67 66 64 63 64 65 65 66 68 69 70 71 71 71 70 69 69 69 69 68 67 67 69 69 66 66 66 63 59 59 60 58 55 53 52 51 50 50 49 49
66 65 64 64 63 62 62 61 60 60 61 61 62 62 62 62 62 63 63 64 65 65 65 64 64 64 65 65 65 65 65 66 66 67 67 67 68 69 69 69 70 70 69 69 68 66 65 63 62 62 64 65 66 68 69 70 70 70 70 69 69 69 69 68 66 65 65 67 66 64 63 65 63 60 59 58 56 54 53 51 50 50 50 50 50
Wind_Direction
268 268 268 268 268 268 268 268 269 269 269 269 269 269 269 269 269 269 269 269 268 268 268 268 268 268 268 268 268 268 268 268 268 268 267 267 267 267 267 267 266 266 265 265 265 264 264 263 263 263 262 262 262 262 262 262 261 261 261 261 261 260 260 259 259 258 258 258 258 258 257 257 256 256 256 256 255 255 254 254 253 253 253 253 252
268 268 268 268 269 269 269 269 269 269 269 269 269 269 269 269 269 269 269 269 268 268 268 268 268 269 269 269 269 268 268 268 268 268 268 268 268 268 268 268 267 267 267 267 266 266 266 265 265 264 264 263 263 263 263 262 262 262 261 261 261 261 261 260 260 259 259 258 258 258 258 257 257 257 256 256 256 256 255 255 254 254 253 253 252
269 269 269 269 269 269 269 269 269 269 268 268 269 269 269 269 269 269 269 269 269 269 269 270 270 270 270 270 270 270 270 270 270 270 270 270 270 270 270 269 269 269 268 268 268 268 267 267 267 266 266 265 265 264 264 264 263 263 262 262 262 261 261 261 260 260 260 259 259 258 258 258 258 257 257 256 256 256 256 255 255 254 254 253 253
270 270 270 270 271 270 270 270 270 270 270 270 270 270 271 271 271 271 270 270 271 271 271 271 271 272 272 272 272 272 272 272 272 272 273 273 273 272 272 272 272 272 271 271 270 270 269 269 268 268 268 267 266 266 265 265 265 264 264 263 263 262 262 261 261 260 260 260 259 259 258 258 258 258 257 257 256 256 256 256 255 255 255 254 254
272 273 273 272 272 272 272 272 272 272 273 273 273 273 272 272 271 271 271 272 273 273 273 273 273 274 274 274 274 274 274 274 274 275 275 275 275 275 275 275 275 275 275 274 274 273 273 272 272 271 270 270 269 268 267 267 266 265 265 264 264 264 263 263 262 261 261 260 260 259 259 258 258 258 257 257 257 257 256 256 256 255 255 255 255
274 274 273 272 272 272 272 273 273 273 274 274 274 273 272 271 270 270 271 272 273 273 274 275 275 275 275 276 276 277 277 277 276 276 276 276 276 276 276 276 276 276 275 275 274 274 274 274 273 273 273 272 271 271 270 269 269 268 267 266 266 265 264 264 263 262 262 261 260 260 259 259 258 258 258 257 257 257 257 256 256 255 255 255 255
274 273 272 272 272 272 273 274 274 274 274 274 273 273 273 272 271 270 270 271 272 273 274 274 274 274 275 275 276 276 277 277 277 277 277 277 277 277 276 276 276 276 276 276 275 275 274 274 273 273 272 272 272 272 271 271 271 270 270 269 268 267 266 265 265 264 263 262 261 261 260 260 259 258 258 258 257 257 257 257 256 255 255 255 255
275 274 274 274 276 277 277 277 277 277 277 277 277 277 276 275 273 272 271 272 273 273 274 274 274 274 275 275 276 276 277 278 279 279 279 279 280 280 280 279 279 279 279 279 279 279 279 278 277 276 275 274 274 273 273 272 272 271 271 270 270 269 268 268 267 266 265 264 263 262 261 260 260 259 258 258 257 257 257 257 257 256 255 255 254
274 274 275 276 277 278 278 278 278 279 279 279 279 279 279 278 277 276 275 275 275 275 275 276 276 276 277 277 278 278 279 280 281 281 282 282 283 283 283 283 283 282 282 282 282 283 283 283 282 281 279 278 277 277 276 275 274 274 273 272 271 270 269 269 268 267 267 266 265 264 263 261 261 260 260 259 258 257 256 256 257 257 256 256 255
273 273 274 274 274 275 276 277 277 278 278 279 279 280 280 279 279 278 278 277 277 278 278 278 278 278 279 279 280 280 281 282 282 283 284 285 286 286 286 286 286 286 285 285 285 285 285 285 285 284 282 281 280 279 278 277 276 275 274 273 272 272 271 270 269 268 268 267 266 266 265 263 262 261 261 260 259 258 257 256 256 256 256 256 256
276 276 275 275 274 275 276 277 278 278 278 279 279 280 280 280 280 279 279 279 279 279 279 280 280 280 280 280 281 282 282 283 284 285 286 288 288 289 289 289 289 288 288 288 287 287 287 287 286 285 284 283 282 280 279 278 277 276 275 274 273 272 272 271 271 270 269 269 268 267 266 265 264 263 262 261 261 260 259 258 257 256 256 256 256
280 280 279 279 278 278 278 278 279 279 279 279 280 280 280 280 280 280 280 280 281 281 281 281 281 281 281 281 282 283 284 285 286 287 288 289 290 290 290 290 290 290 290 290 289 289 289 288 288 287 286 285 284 282 280 279 277 275 274 273 273 272 272 271 271 270 270 269 269 268 268 267 266 265 264 263 262 261 260 259 259 258 257 256 256
281 281 281 281 280 279 279 279 280 280 280 280 281 281 281 280 280 280 280 281 281 281 281 282 282 282 282 282 283 284 285 286 287 288 289 290 290 291 291 291 291 291 291 291 290 290 290 289 288 288 287 286 285 283 282 280 277 275 274 273 273 273 272 272 271 271 270 269 269 268 268 268 267 267 266 265 263 262 261 260 260 259 258 258 257
280 281 281 281 281 281 280 280 280 280 281 281 282 282 282 282 281 281 281 282 282 282 282 282 282 282 283 284 285 286 286 287 288 289 290 290 291 291 291 291 291 291 291 291 291 291 290 290 289 288 287 287 285 284 283 281 279 277 276 275 274 274 273 272 272 271 271 270 269 269 268 267 267 267 266 266 265 264 263 261 260 260 259 259 258
280 280 281 281 281 281 281 281 281 281 282 282 282 282 282 282 282 282 283 283 283 283 283 283 283 283 284 285 286 286 287 288 289 289 290 291 291 291 291 291 291 291 291 291 291 291 291 290 289 288 287 286 285 284 283 282 281 280 278 277 276 275 274 274 273 272 272 271 270 269 268 267 267 266 266 266 265 265 264 263 262 261 260 260 259
280 280 280 281 282 282 282 282 282 282 282 282 282 282 283 283 283 284 284 284 284 284 284 284 284 285 285 286 287 287 288 289 290 290 291 291 291 291 291 291 291 291 291 291 291 291 291 290 289 288 287 286 285 284 283 282 281 280 279 278 277 276 276 275 274 274 273 272 271 270 269 268 267 266 265 265 265 264 264 264 263 262 262 261 260
280 280 281 281 282 282 282 282 282 282 282 282 283 283 283 283 284 284 284 284 284 284 284 284 285 285 286 287 288 289 289 290 291 291 291 291 291 291 291 291 291 291 291 291 291 290 290 290 289 288 287 286 285 284 283 282 281 281 280 279 278 278 277 277 276 275 275 274 273 272 271 269 268 267 266 265 264 264 264 263 263 263 262 262 261
280 280 281 281 282 282 282 282 283 283 283 283 283 283 283 283 283 284 284 284 284 284 285 285 286 287 287 288 289 290 290 290 291 291 291 291 291 291 291 291 291 291 291 291 290 290 290 289 288 287 286 286 285 284 283 282 282 281 280 280 279 279 279 278 278 278 277 276 275 274 272 271 270 268 267 266 265 265 264 264 263 263 263 262 262
281 281 281 282 282 283 283 283 283 284 284 284 284 284 284 284 284 284 284 284 285 285 285 286 287 288 288 289 289 290 290 290 291 291 291 291 291 291 291 291 291 291 291 291 290 290 289 289 288 287 286 286 285 284 284 283 282 282 281 281 281 280 280 280 280 279 278 277 276 275 273 272 271 270 269 268 267 266 266 265 265 264 264 263 262
282 282 282 282 283 283 283 284 284 284 284 284 284 284 284 284 284 285 285 285 285 286 286 287 288 289 289 290 290 290 291 291 291 292 292 292 292 292 292 292 292 292 291 291 290 290 289 288 288 287 287 286 286 285 285 284 284 283 283 283 282 282 282 281 281 280 279 278 277 275 274 272 271 271 270 269 269 268 268 267 267 266 265 264 263
284 283 283 283 283 283 283 284 284 284 284 284 284 284 284 284 285 285 285 286 286 287 287 288 289 290 290 291 291 292 292 292 292 292 292 292 292 292 293 292 292 292 291 291 290 289 289 288 288 287 287 287 287 287 286 286 285 285 285 285 284 284 283 283 282 281 280 278 277 276 275 273 272 271 271 270 270 269 269 269 268 268 267 266 265
286 285 284 284 283 283 284 284 284 284 285 285 285 284 284 285 286 286 286 286 287 288 288 289 290 291 291 292 292 293 293 293 293 293 293 293 293 293 293 293 292 291 291 290 290 289 289 288 288 288 288 288 288 288 288 287 287 287 286 286 286 285 285 284 283 282 281 280 278 277 276 274 273 272 271 271 270 270 270 270 269 269 268 267 266
288 287 286 285 285 285 285 285 285 285 285 285 285 285 286 286 286 287 287 287 288 289 289 290 291 292 292 292 293 293 293 294 294 294 294 294 294 294 293 293 292 291 291 290 290 290 289 289 289 289 289 289 289 289 288 288 288 288 288 287 287 286 286 285 284 283 282 281 279 278 277 276 275 274 273 272 271 271 270 270 269 268 268 267 267
289 287 286 286 286 286 286 286 286 286 286 286 286 286 287 287 287 287 288 288 289 290 290 291 291 292 292 293 293 293 294 294 294 295 295 295 295 294 294 293 292 292 291 291 291 290 290 290 290 290 290 290 290 289 289 289 289 288 288 288 287 287 286 285 284 283 282 281 280 279 278 277 276 275 275 274 273 272 271 270 270 269 268 268 267
289 287 287 287 287 287 287 287 287 287 287 287 287 287 287 288 288 288 289 289 290 290 291 291 292 292 293 293 293 293 294 294 295 295 296 296 295 294 294 293 293 292 292 292 291 291 291 291 291 291 291 291 290 290 290 290 289 289 289 288 288 287 286 285 284 283 282 281 280 279 278 278 277 276 276 275 274 273 272 272 271 271 270 269 269
288 288 288 288 288 288 288 288 287 287 287 287 288 288 288 288 289 289 289 290 290 291 291 292 292 292 293 293 293 294 294 295 296 296 296 296 295 294 294 293 293 293 293 293 293 293 293 292 292 292 292 292 291 291 291 290 290 290 289 289 288 287 286 285 284 283 282 281 281 280 279 278 277 277 276 275 274 273 273 273 272 272 271 271 270
288 288 289 288 288 288 288 288 288 288 288 288 288 288 288 288 289 289 289 290 290 291 292 292 292 292 293 293 294 294 295 296 296 296 296 296 295 295 294 294 294 294 294 294 294 294 293 293 293 293 293 293 292 292 291 291 291 290 289 289 288 287 286 285 284 283 282 282 281 280 280 279 278 277 276 275 274 274 273 273 273 272 271 271 270
288 288 288 288 288 288 288 288 288 288 288 288 288 288 288 288 289 289 290 290 291 291 292 292 292 293 293 294 294 295 296 296 297 296 296 296 295 295 295 295 295 295 295 295 295 294 294 294 294 294 294 293 293 292 292 291 291 290 289 288 288 287 286 285 284 284 283 282 282 281 281 280 279 277 276 275 275 275 274 274 273 273 272 271 270
287 287 287 287 288 288 288 288 288 288 288 288 288 288 288 289 289 290 290 291 291 292 292 292 292 293 294 294 295 296 296 297 296 296 296 296 296 296 296 296 296 296 295 295 295 295 295 295 295 294 294 293 293 292 292 291 291 290 289 288 288 287 286 285 285 284 284 283 283 282 281 280 279 278 277 276 276 275 275 274 274 273 273 272 271
289 288 288 288 288 288 288 288 288 288 288 288 288 288 289 289 290 290 291 291 291 292 292 292 293 294 294 295 295 296 296 296 296 296 297 296 296 297 297 297 297 296 296 296 296 296 296 295 295 295 294 294 293 292 292 292 291 290 289 289 288 288 287 286 286 285 285 284 283 282 281 280 279 278 278 277 277 276 275 275 275 275 274 274 273
291 290 289 289 289 289 289 288 288 288 288 288 288 289 289 290 290 290 291 291 291 291 292 293 293 294 295 295 296 296 296 296 297 297 297 297 297 297 298 298 297 297 297 297 297 296 296 296 295 295 294 294 293 292 292 292 291 290 290 289 289 289 288 288 287 286 286 285 284 283 282 281 280 280 279 279 278 277 276 276 276 277 277 276 275
291 290 290 289 289 289 288 288 288 288 288 288 289 289 289 289 290 290 290 291 291 292 292 293 294 295 295 296 296 297 297 297 297 298 298 298 298 298 298 298 298 298 297 297 297 296 296 296 295 295 294 294 293 293 292 292 291 291 290 290 290 289 289 289 288 288 287 285 284 283 283 282 282 281 281 280 279 279 279 279 279 279 279 278 277
291 290 290 289 289 288 288 288 288 288 288 288 289 289 289 289 290 290 290 291 292 292 293 294 294 295 295 296 297 297 297 297 298 298 298 298 298 298 298 298 298 298 297 297 297 296 296 296 295 295 295 294 294 293 293 293 292 292 291 291 291 290 289 289 289 288 288 287 287 286 285 284 283 283 282 281 281 281 281 281 281 280 279 279 278
291 291 291 290 289 289 289 288 288 288 288 288 288 289 289 289 290 290 291 292 292 293 294 294 294 295 296 297 297 297 297 298 298 298 298 298 298 298 298 298 298 298 297 297 297 297 296 296 296 296 296 295 294 294 294 293 293 293 292 292 291 291 290 289 289 288 288 288 288 287 287 287 287 286 285 285 284 284 283 283 281 280 279 278 278
291 291 291 290 289 289 288 288 288 288 288 288 289 289 289 290 290 291 291 292 293 293 294 294 294 296 297 296 296 297 298 298 298 298 298 298 298 298 298 298 298 298 298 297 297 297 297 297 297 297 296 296 295 295 295 294 294 294 293 293 292 292 291 290 289 288 288 288 288 288 288 288 288 288 287 287 287 287 287 286 284 282 280 278 277
291 290 290 290 289 289 289 289 288 288 288 289 289 289 289 290 290 291 292 293 293 294 294 294 295 296 297 296 297 297 298 298 298 298 298 298 298 298 298 298 298 298 298 298 298 297 297 298 298 297 297 296 295 295 295 295 295 295 294 294 293 293 292 291 290 290 290 289 289 289 289 289 288 288 288 288 287 287 287 287 286 284 282 280 278
290 290 289 289 289 289 289 289 289 289 289 289 289 289 289 290 291 292 292 293 294 294 294 295 296 296 296 296 297 298 297 297 297 297 297 297 298 298 298 298 298 298 298 298 298 298 298 298 298 297 297 296 296 296 296 296 296 296 295 295 294 294 293 292 292 292 292 291 291 290 290 290 290 289 289 288 288 288 287 287 286 285 284 282 280
291 290 290 289 289 289 289 289 289 289 289 289 289 290 290 291 292 292 293 294 293 293 294 295 296 295 295 296 297 297 297 297 297 297 297 297 297 298 298 298 298 298 298 298 298 298 298 298 298 297 297 297 297 297 297 297 297 296 295 295 295 295 294 294 293 294 294 293 293 292 291 291 290 290 289 289 289 288 288 286 285 284 284 282 281
291 290 290 290 289 289 289 289 289 289 289 290 290 290 291 292 292 293 293 293 293 293 294 295 295 294 295 296 296 296 296 296 296 296 296 297 297 297 298 298 298 298 298 298 298 299 299 299 298 298 298 298 298 298 298 298 297 296 296 296 296 295 295 294 295 295 295 295 294 293 293 292 292 291 290 290 289 288 288 287 285 284 283 282 282
290 290 290 289 289 289 289 289 289 289 290 290 290 290 291 291 292 292 292 292 292 293 293 293 293 294 294 295 295 295 295 295 295 296 296 297 297 297 298 298 297 298 298 298 299 299 299 299 298 298 298 299 299 299 299 298 297 297 296 296 296 295 295 295 296 296 296 295 294 294 294 294 293 292 291 291 290 289 288 288 287 285 284 283 283
291 290 290 289 289 289 289 289 289 290 290 290 289 290 290 290 291 291 291 291 292 292 292 293 293 293 294 294 294 294 295 295 295 296 297 297 297 297 297 297 297 298 299 299 299 299 300 299 299 299 299 300 300 299 299 298 298 297 297 296 296 295 295 296 297 297 296 295 295 295 295 295 294 293 293 292 291 290 289 288 288 287 286 284 282
291 290 290 289 289 289 289 289 289 289 288 288 288 289 289 290 290 290 290 291 291 292 292 292 292 293 293 294 294 294 294 294 295 296 297 296 296 297 297 297 298 298 299 299 300 300 300 300 300 300 300 300 300 299 299 298 298 298 297 297 297 296 297 298 298 298 297 296 295 296 296 295 294 294 293 293 292 292 291 290 289 288 286 284 281
290 290 289 289 288 288 288 287 287 287 287 287 288 288 289 289 290 290 290 291 291 291 291 291 292 292 293 293 293 294 294 294 295 296 296 296 297 297 297 297 298 299 300 300 301 301 301 301 301 301 301 301 300 300 299 299 299 299 298 298 297 298 299 299 299 298 297 296 296 296 296 295 295 294 294 293 293 292 293 292 291 288 285 283 282
289 288 288 287 287 286 286 286 286 286 287 287 288 289 289 289 289 290 290 290 290 290 290 291 291 292 292 293 293 293 294 294 295 295 296 296 297 297 297 298 299 300 301 301 301 302 302 301 301 301 301 301 300 300 300 300 300 299 299 298 299 299 300 300 299 298 297 297 297 297 296 295 295 295 295 294 294 294 294 293 291 289 286 284 283
288 287 287 286 286 286 286 287 287 287 288 288 289 289 289 289 289 289 289 289 289 290 290 290 291 291 292 292 293 293 294 294 295 295 296 296 297 297 298 299 300 301 302 302 302 302 301 301 301 301 301 301 301 301 300 300 300 300 299 299 300 301 301 300 300 299 298 298 298 297 296 296 296 295 295 294 295 295 295 293 291 290 288 286 284
290 289 289 288 288 288 288 288 288 289 289 289 289 288 288 288 288 288 288 288 289 289 289 289 290 291 292 292 292 293 294 294 294 295 296 296 297 298 298 299 301 301 302 302 302 302 301 301 301 302 301 301 301 301 301 301 301 301 300 301 302 302 302 301 300 300 300 300 299 297 297 297 297 296 296 296 296 296 294 293 292 290 288 286 284
293 292 291 291 290 290 290 290 289 289 289 288 288 288 288 288 288 287 287 288 288 288 289 289 290 291 291 292 292 293 293 294 295 295 296 297 297 298 299 300 301 301 302 302 302 302 301 302 302 302 302 302 302 302 301 302 302 301 301 302 303 303 302 301 301 301 302 302 300 299 300 300 299 298 297 297 297 296 294 293 292 290 288 286 284
295 294 293 293 292 292 292 291 290 290 289 288 288 288 288 287 287 287 287 288 288 288 288 289 290 290 291 292 292 293 293 294 295 296 296 297 298 299 300 301 301 301 302 302 302 301 301 302 303 302 302 302 302 302 302 302 302 301 302 303 303 303 303 302 302 302 302 301 299 298 299 299 298 299 299 297 297 296 295 293 292 290 288 286 284
297 296 296 295 294 294 293 292 291 291 290 290 289 288 288 287 287 287 288 288 288 288 288 289 290 291 291 292 292 292 293 294 296 296 297 298 299 300 300 301 301 301 302 302 301 301 301 302 302 302 302 302 302 302 302 302 302 302 303 303 303 303 302 302 302 302 302 300 299 300 300 299 298 299 299 298 297 296 294 293 292 290 288 286 285
298 298 297 296 295 294 293 293 292 292 291 290 289 288 288 288 288 288 288 288 288 288 288 289 290 291 291 292 292 293 294 295 296 297 298 299 300 300 301 301 301 301 302 302 301 302 302 302 302 302 302 302 302 302 302 302 301 301 302 302 301 300 300 300 300 301 301 301 301 303 303 301 300 300 299 298 298 296 294 293 292 291 289 287 286
298 298 297 297 296 296 295 295 294 294 292 291 290 289 289 289 289 289 288 288 288 288 289 291 291 291 291 292 293 294 295 296 296 297 298 299 300 300 300 301 301 301 302 302 302 302 302 302 302 302 302 302 302 302 302 302 302 302 302 302 301 301 300 301 301 301 301 300 301 302 301 300 300 300 299 298 297 296 294 293 292 291 290 288 287
Height
10501 10500 10499 10499 10497 10496 10496 10495 10495 10494 10493 10492 10491 10491 10491 10489 10488 10487 10485 10483 10480 10478 10476 10475 10474 10474 10473 10472 10471 10469 10467 10466 10465 10465 10464 10462 10460 10458 10457 10456 10455 10454 10452 10450 10448 10448 10448 10447 10446 10445 10444 10442 10441 10440 10440 10440 10440 10440 10440 10439 10439 10440 10441 10441 10443 10445 10448 10448 10447 10447 10449 10451 10453 10455 10457 10459 10460 10463 10468 10469 10470 10473 10477 10480 10481
10493 10492 10491 10490 10489 10488 10488 10487 10486 10485 10484 10483 10482 10482 10481 10480 10478 10477 10474 10471 10469 10467 10465 10465 10464 10463 10462 10461 10459 10457 10455 10454 10454 10452 10450 10449 10447 10445 10444 10443 10441 10439 10437 10435 10434 10432 10431 10430 10429 10428 10428 10426 10423 10421 10419 10419 10419 10419 10420 10419 10418 10418 10418 10418 10420 10423 10426 10426 10426 10426 10428 10428 10431 10433 10435 10438 10438 10441 10445 10446 10448 10452 10455 10458 10460
10485 10484 10484 10483 10481 10480 10480 10479 10478 10477 10475 10474 10474 10473 10472 10471 10469 10466 10464 10461 10459 10457 10456 10455 10454 10453 10451 10449 10447 10445 10444 10443 10442 10439 10437 10435 10434 10433 10431 10428 10426 10424 10422 10421 10420 10417 10415 10413 10411 10410 10410 10409 10406 10404 10401 10399 10399 10399 10399 10399 10398 10396 10396 10396 10398 10400 10402 10403 10402 10404 10406 10406 10408 10409 10411 10416 10417 10418 10421 10422 10426 10429 10432 10435 10438
10478 10477 10477 10476 10474 10472 10471 10470 10469 10467 10467 10466 10465 10465 10463 10461 10459 10457 10454 10451 10449 10448 10447 10445 10444 10442 10440 10438 10436 10435 10433 10432 10430 10428 10426 10423 10422 10420 10418 10415 10411 10409 10408 10407 10405 10402 10400 10398 10396 10393 10392 10390 10388 10386 10384 10381 10380 10380 10380 10379 10377 10374 10373 10374 10377 10378 10379 10380 10379 10380 10382 10384 10386 10386 10386 10390 10393 10396 10398 10399 10402 10406 10408 10412 10415
10471 10469 10468 10468 10465 10463 10463 10462 10461 10459 10459 10457 10456 10456 10454 10452 10450 10447 10445 10442 10440 10438 10437 10436 10434 10432 10430 10428 10426 10424 10423 10422 10420 10418 10415 10412 10410 10408 10406 10403 10399 10396 10394 10392 10390 10387 10385 10382 10380 10377 10375 10372 10370 10368 10366 10364 10362 10361 10361 10360 10357 10353 10351 10352 10355 10356 10358 10358 10356 10356 10359 10361 10363 10363 10363 10366 10368 10371 10375 10376 10378 10382 10385 10387 10390
10465 10463 10461 10459 10457 10456 10456 10455 10454 10452 10451 10449 10448 10447 10445 10443 10441 10439 10437 10434 10432 10430 10427 10426 10425 10423 10421 10418 10416 10414 10412 10410 10409 10407 10404 10402 10400 10397 10395 10392 10388 10384 10381 10379 10377 10374 10371 10368 10365 10362 10359 10355 10352 10350 10349 10346 10344 10342 10342 10341 10337 10334 10332 10332 10332 10333 10334 10335 10335 10334 10336 10338 10340 10341 10341 10344 10347 10346 10348 10351 10353 10357 10361 10363 10365
10458 10456 10454 10452 10450 10449 10450 10448 10446 10445 10443 10441 10440 10438 10436 10435 10433 10431 10429 10427 10424 10422 10419 10418 10416 10414 10412 10409 10407 10404 10402 10400 10398 10396 10393 10390 10388 10385 10383 10381 10377 10372 10368 10364 10362 10359 10357 10353 10350 10347 10343 10339 10335 10333 10331 10329 10327 10324 10323 10321 10318 10315 10314 10313 10311 10310 10310 10311 10313 10314 10314 10315 10317 10318 10318 10321 10326 10326 10323 10323 10327 10332 10336 10338 10340
10451 10449 10447 10446 10444 10441 10441 10440 10437 10436 10434 10432 10431 10430 10428 10426 10425 10423 10421 10419 10416 10413 10411 10409 10407 10405 10402 10400 10398 10395 10392 10390 10387 10384 10382 10379 10376 10372 10369 10367 10364 10361 10357 10352 10347 10343 10339 10335 10332 10328 10325 10322 10319 10315 10313 10311 10308 10306 10305 10302 10299 10296 10295 10293 10292 10290 10289 10288 10290 10292 10293 10293 10293 10294 10295 10297 10303 10307 10304 10299 10300 10305 10309 10314 10317
10444 10442 10441 10441 10439 10435 10433 10431 10430 10428 10426 10424 10422 10421 10419 10417 10415 10414 10412 10410 10407 10404 10402 10400 10397 10395 10393 10390 10387 10384 10382 10379 10375 10373 10370 10367 10364 10360 10357 10353 10350 10347 10344 10341 10337 10331 10326 10320 10315 10310 10307 10304 10301 10299 10295 10291 10288 10286 10285 10283 10280 10278 10276 10274 10273 10271 10269 10267 10267 10269 10270 10272 10272 10272 10271 10273 10276 10283 10286 10281 10277 10280 10282 10286 10289
10437 10435 10433 10434 10434 10430 10426 10424 10422 10421 10419 10416 10414 10412 10411 10408 10406 10404 10402 10400 10397 10394 10392 10390 10387 10385 10382 10379 10376 10374 10371 10368 10364 10361 10358 10355 10351 10347 10344 10340 10336 10333 10330 10327 10324 10320 10316 10309 10301 10295 10291 10287 10285 10283 10279 10274 10270 10268 10266 10263 10261 10259 10257 10254 10253 10252 10250 10248 10247 10247 10247 10248 10250 10251 10250 10250 10252 10256 10261 10261 10258 10258 10260 10261 10261
10429 10427 10424 10425 10426 10424 10420 10417 10414 10412 10410 10408 10406 10404 10401 10399 10397 10395 10392 10390 10387 10384 10382 10379 10377 10374 10372 10369 10366 10363 10360 10357 10353 10349 10346 10343 10339 10334 10330 10326 10322 10319 10315 10312 10309 10306 10303 10297 10289 10281 10275 10271 10269 10267 10263 10259 10256 10252 10248 10246 10244 10242 10239 10236 10234 10233 10231 10229 10227 10227 10226 10226 10227 10228 10228 10229 10230 10231 10234 10237 10237 10237 10239 10241 10238
10419 10417 10415 10415 10415 10414 10412 10410 10406 10404 10401 10399 10397 10395 10392 10390 10387 10385 10383 10380 10377 10374 10372 10369 10366 10363 10361 10358 10355 10352 10348 10345 10342 10338 10334 10330 10326 10322 10317 10313 10309 10305 10301 10297 10293 10290 10288 10283 10276 10267 10260 10256 10253 10249 10245 10242 10240 10237 10233 10230 10227 10225 10223 10220 10217 10215 10213 10211 10209 10207 10206 10205 10204 10205 10206 10207 10209 10210 10211 10213 10214 10214 10217 10220 10218
10412 10408 10406 10405 10405 10404 10402 10401 10398 10395 10392 10389 10387 10385 10382 10380 10377 10375 10373 10370 10367 10364 10361 10359 10356 10352 10350 10347 10344 10340 10337 10333 10330 10326 10323 10318 10313 10309 10305 10300 10296 10291 10286 10282 10278 10274 10271 10267 10262 10255 10248 10242 10237 10232 10228 10225 10223 10221 10218 10215 10213 10209 10207 10204 10201 10198 10197 10194 10192 10190 10188 10186 10184 10183 10184 10185 10186 10188 10189 10191 10192 10192 10195 10197 10196
10405 10400 10397 10395 10395 10394 10392 10391 10389 10386 10383 10380 10377 10374 10371 10369 10367 10364 10362 10359 10356 10354 10350 10348 10345 10342 10338 10335 10332 10329 10326 10322 10318 10315 10310 10305 10301 10296 10292 10287 10282 10277 10272 10268 10264 10259 10254 10250 10246 10241 10235 10228 10222 10217 10212 10208 10204 10202 10200 10199 10197 10194 10191 10188 10186 10182 10180 10178 10175 10173 10170 10168 10166 10165 10164 10164 10164 10166 10167 10169 10171 10171 10173 10176 10176
10397 10392 10388 10386 10384 10384 10382 10380 10379 10376 10373 10370 10367 10364 10361 10358 10356 10353 10351 10348 10345 10342 10339 10337 10334 10331 10327 10324 10321 10317 10314 10310 10306 10303 10298 10292 10288 10283 10278 10274 10269 10264 10258 10254 10249 10243 10238 10232 10228 10224 10220 10215 10208 10203 10198 10193 10189 10185 10182 10181 10179 10177 10174 10172 10169 10167 10164 10161 10158 10155 10153 10151 10149 10147 10146 10145 10144 10145 10146 10147 10149 10151 10152 10154 10155
10387 10383 10379 10376 10375 10373 10371 10369 10368 10365 10363 10360 10357 10354 10351 10348 10345 10343 10340 10337 10334 10331 10328 10325 10323 10320 10316 10312 10309 10305 10301 10298 10294 10290 10285 10280 10275 10270 10265 10260 10255 10250 10245 10240 10234 10228 10223 10217 10211 10207 10204 10199 10194 10189 10185 10179 10175 10171 10166 10163 10161 10159 10157 10154 10152 10150 10147 10144 10140 10137 10135 10133 10132 10130 10129 10127 10126 10126 10126 10126 10127 10129 10132 10134 10134
10378 10373 10370 10368 10365 10363 10361 10359 10357 10355 10353 10350 10347 10344 10341 10339 10336 10332 10330 10327 10323 10321 10317 10314 10311 10309 10305 10300 10297 10293 10288 10285 10281 10276 10272 10267 10262 10256 10251 10246 10241 10235 10230 10225 10219 10213 10208 10202 10196 10192 10188 10183 10178 10174 10170 10165 10160 10156 10151 10147 10144 10141 10139 10136 10134 10132 10129 10126 10123 10119 10116 10114 10113 10112 10111 10109 10109 10108 10107 10107 10108 10109 10111 10114 10116
10369 10366 10362 10359 10356 10354 10352 10350 10347 10345 10342 10340 10337 10334 10331 10328 10325 10322 10319 10316 10312 10310 10307 10303 10300 10297 10293 10289 10285 10280 10276 10272 10268 10263 10258 10253 10248 10242 10237 10232 10226 10221 10216 10210 10204 10198 10193 10187 10181 10177 10173 10168 10162 10158 10154 10150 10145 10141 10137 10132 10128 10125 10122 10119 10116 10113 10110 10107 10105 10101 10098 10094 10093 10093 10092 10091 10090 10089 10089 10089 10090 10091 10092 10094 10096
10361 10358 10354 10351 10348 10345 10342 10340 10337 10335 10332 10330 10327 10324 10320 10317 10314 10312 10309 10305 10301 10298 10295 10292 10288 10285 10281 10277 10273 10268 10264 10260 10255 10251 10245 10239 10234 10228 10223 10218 10212 10206 10200 10194 10189 10183 10177 10172 10167 10162 10157 10153 10148 10143 10138 10134 10129 10125 10121 10117 10113 10109 10106 10102 10098 10095 10091 10088 10085 10083 10080 10076 10074 10073 10072 10071 10071 10070 10070 10070 10071 10072 10072 10074 10075
10352 10349 10346 10342 10339 10336 10333 10330 10328 10324 10322 10319 10316 10313 10309 10306 10303 10301 10297 10294 10290 10286 10283 10279 10276 10272 10267 10264 10260 10254 10251 10246 10241 10237 10232 10225 10220 10214 10209 10203 10197 10191 10185 10178 10173 10167 10161 10156 10151 10146 10141 10137 10132 10127 10122 10117 10113 10108 10104 10101 10098 10093 10089 10085 10081 10078 10074 10070 10066 10063 10061 10058 10056 10055 10053 10052 10052 10051 10051 10051 10051 10052 10051 10052 10053
10343 10340 10337 10333 10330 10327 10324 10321 10318 10315 10311 10308 10305 10302 10298 10295 10293 10290 10286 10282 10278 10274 10271 10267 10263 10259 10254 10249 10246 10240 10236 10232 10226 10223 10218 10210 10205 10201 10194 10188 10182 10175 10169 10163 10158 10152 10146 10141 10136 10131 10125 10120 10116 10111 10106 10101 10096 10092 10088 10084 10080 10076 10072 10067 10062 10059 10056 10053 10049 10045 10042 10040 10039 10038 10037 10035 10033 10032 10032 10032 10031 10031 10030 10030 10032
10333 10330 10326 10323 10320 10317 10315 10311 10308 10305 10301 10298 10295 10291 10287 10285 10282 10278 10274 10270 10266 10262 10258 10254 10250 10246 10240 10235 10231 10226 10221 10217 10212 10208 10203 10196 10191 10186 10179 10173 10167 10160 10154 10148 10143 10137 10132 10126 10121 10116 10110 10105 10100 10095 10090 10085 10080 10075 10071 10067 10063 10058 10054 10049 10044 10040 10037 10034 10031 10028 10024 10022 10020 10020 10019 10017 10017 10015 10014 10014 10012 10011 10010 10009 10011
10322 10319 10315 10312 10310 10307 10305 10301 10297 10294 10291 10287 10283 10279 10276 10273 10270 10266 10262 10258 10253 10249 10244 10240 10236 10232 10227 10221 10216 10211 10207 10202 10197 10193 10188 10181 10175 10170 10163 10157 10151 10145 10139 10133 10128 10122 10117 10111 10106 10101 10095 10090 10085 10080 10074 10069 10064 10059 10054 10050 10046 10041 10036 10031 10027 10024 10020 10016 10014 10010 10007 10005 10003 10002 10001 9999 9999 9998 9996 9996 9994 9992 9992 9991 9991
10312 10308 10305 10302 10300 10297 10294 10290 10287 10283 10280 10275 10271 10267 10264 10261 10257 10253 10249 10245 10240 10235 10231 10226 10222 10218 10213 10207 10202 10197 10192 10187 10182 10177 10172 10165 10159 10154 10147 10141 10136 10130 10124 10118 10113 10107 10101 10096 10091 10085 10080 10075 10070 10064 10059 10054 10049 10044 10039 10034 10029 10024 10019 10015 10011 10007 10004 10000 9997 9994 9991 9989 9987 9985 9984 9981 9980 9980 9978 9976 9975 9974 9973 9974 9974
10301 10296 10294 10291 10288 10285 10282 10278 10275 10271 10268 10263 10259 10255 10251 10247 10243 10239 10235 10231 10227 10221 10217 10212 10208 10204 10199 10192 10188 10183 10177 10172 10167 10162 10156 10150 10144 10138 10131 10125 10120 10114 10109 10103 10098 10092 10086 10081 10076 10070 10065 10060 10054 10049 10044 10038 10033 10028 10023 10018 10013 10008 10004 10000 9996 9991 9987 9983 9980 9978 9975 9974 9972 9970 9968 9966 9963 9962 9960 9958 9957 9956 9955 9956 9956
10289 10285 10282 10279 10276 10273 10269 10266 10262 10258 10255 10251 10245 10241 10237 10233 10229 10225 10221 10217 10213 10207 10202 10197 10193 10189 10184 10177 10173 10169 10162 10157 10152 10146 10141 10134 10129 10123 10116 10110 10105 10099 10094 10088 10082 10077 10071 10066 10060 10055 10050 10044 10039 10033 10028 10023 10018 10013 10008 10002 9997 9993 9989 9985 9981 9976 9972 9968 9965 9962 9960 9959 9957 9955 9952 9950 9948 9945 9944 9942 9941 9940 9939 9939 9938
10277 10273 10270 10267 10263 10260 10256 10252 10248 10245 10241 10237 10232 10227 10223 10219 10215 10210 10207 10203 10198 10193 10188 10182 10177 10174 10169 10162 10158 10154 10148 10141 10137 10131 10125 10120 10114 10108 10102 10096 10090 10084 10079 10073 10068 10063 10057 10051 10045 10040 10034 10029 10023 10017 10012 10008 10003 9999 9993 9988 9983 9979 9975 9970 9965 9961 9957 9954 9950 9947 9945 9943 9941 9939 9936 9934 9932 9931 9929 9927 9925 9924 9923 9923 9922
10267 10262 10258 10254 10250 10247 10243 10239 10234 10230 10227 10222 10218 10213 10209 10205 10201 10196 10192 10188 10183 10179 10173 10166 10161 10158 10154 10148 10142 10138 10132 10127 10121 10116 10110 10105 10099 10093 10087 10081 10076 10071 10064 10059 10054 10048 10043 10037 10031 10025 10019 10014 10008 10002 9997 9993 9989 9984 9980 9975 9970 9965 9961 9955 9951 9946 9942 9939 9936 9933 9930 9927 9925 9923 9920 9919 9918 9916 9915 9912 9909 9907 9907 9906 9905
10258 10252 10246 10242 10237 10233 10229 10225 10221 10216 10212 10207 10203 10199 10194 10190 10186 10181 10177 10172 10168 10164 10158 10151 10146 10143 10139 10134 10128 10123 10118 10112 10106 10101 10096 10090 10084 10079 10073 10068 10062 10057 10051 10045 10039 10034 10028 10023 10017 10011 10005 9999 9993 9988 9984 9980 9975 9970 9966 9962 9957 9952 9947 9941 9936 9932 9928 9925 9921 9918 9915 9912 9909 9906 9904 9904 9904 9902 9900 9897 9894 9891 9890 9889 9887
10242 10239 10234 10228 10224 10219 10215 10211 10206 10202 10197 10192 10188 10183 10179 10176 10171 10166 10162 10156 10153 10148 10142 10136 10131 10127 10124 10119 10113 10109 10103 10097 10091 10086 10081 10076 10070 10065 10059 10054 10048 10042 10037 10031 10025 10020 10014 10008 10002 9996 9990 9985 9979 9974 9970 9966 9962 9957 9952 9948 9944 9938 9932 9927 9922 9918 9915 9910 9906 9903 9900 9897 9894 9891 9890 9890 9889 9888 9886 9883 9880 9876 9874 9872 9870
10221 10221 10219 10215 10209 10204 10200 10196 10191 10187 10182 10177 10173 10168 10165 10161 10156 10151 10147 10141 10137 10133 10127 10122 10117 10112 10108 10103 10099 10094 10088 10082 10077 10072 10067 10061 10055 10050 10045 10039 10034 10028 10022 10016 10011 10005 10000 9994 9988 9982 9976 9971 9965 9960 9957 9952 9947 9943 9939 9935 9931 9925 9918 9913 9908 9905 9901 9897 9893 9889 9886 9882 9879 9876 9875 9875 9873 9873 9871 9870 9867 9862 9858 9855 9853
10203 10203 10203 10201 10197 10190 10185 10181 10176 10172 10168 10163 10158 10154 10150 10145 10141 10137 10132 10127 10122 10117 10112 10107 10103 10097 10092 10088 10084 10079 10073 10067 10063 10057 10052 10046 10041 10036 10031 10025 10019 10013 10008 10002 9997 9992 9986 9980 9975 9968 9962 9956 9951 9947 9944 9939 9934 9929 9926 9923 9918 9912 9906 9900 9895 9890 9886 9883 9880 9876 9872 9868 9864 9862 9861 9859 9858 9857 9857 9856 9853 9849 9844 9839 9836
10191 10188 10186 10185 10182 10176 10170 10166 10161 10157 10153 10148 10143 10139 10135 10130 10126 10122 10117 10112 10107 10102 10097 10093 10088 10083 10079 10074 10069 10063 10058 10053 10049 10043 10038 10032 10026 10022 10017 10011 10005 10000 9994 9989 9983 9978 9972 9966 9961 9955 9949 9942 9937 9934 9931 9926 9921 9916 9912 9909 9905 9900 9895 9889 9883 9878 9873 9868 9864 9861 9857 9853 9850 9848 9846 9844 9844 9844 9843 9842 9839 9835 9830 9825 9821
10177 10172 10168 10166 10163 10159 10155 10150 10146 10142 10137 10132 10128 10124 10119 10115 10111 10106 10102 10097 10092 10087 10082 10077 10073 10069 10065 10060 10054 10048 10044 10039 10035 10029 10024 10018 10013 10008 10003 9998 9992 9986 9980 9975 9970 9964 9958 9952 9946 9940 9934 9928 9922 9920 9917 9913 9908 9903 9899 9895 9892 9887 9883 9878 9872 9867 9862 9858 9853 9848 9844 9839 9835 9832 9829 9828 9828 9828 9828 9827 9825 9821 9817 9814 9809
10162 10157 10152 10147 10144 10141 10138 10134 10130 10126 10121 10117 10113 10109 10104 10099 10096 10091 10087 10082 10077 10072 10067 10062 10059 10055 10051 10045 10039 10034 10030 10025 10020 10015 10010 10005 10000 9995 9990 9984 9978 9972 9966 9961 9956 9950 9944 9938 9933 9927 9920 9914 9908 9906 9904 9900 9895 9890 9886 9882 9878 9874 9870 9865 9860 9855 9852 9847 9843 9838 9834 9829 9824 9820 9816 9814 9814 9813 9812 9810 9807 9804 9801 9800 9797
10147 10142 10137 10131 10126 10123 10120 10117 10113 10109 10105 10101 10097 10093 10088 10084 10081 10077 10072 10067 10063 10057 10052 10048 10045 10041 10035 10030 10025 10021 10016 10011 10006 10001 9996 9991 9986 9981 9976 9971 9965 9959 9953 9947 9942 9936 9930 9925 9919 9914 9908 9901 9895 9893 9891 9887 9882 9877 9873 9869 9866 9862 9857 9852 9847 9843 9840 9835 9830 9826 9822 9818 9813 9809 9804 9802 9801 9802 9801 9797 9791 9787 9783 9781 9781
10131 10127 10123 10117 10112 10107 10104 10100 10096 10092 10089 10086 10082 10077 10073 10069 10066 10062 10057 10053 10048 10042 10037 10034 10031 10026 10020 10015 10012 10008 10003 9997 9993 9988 9983 9978 9973 9968 9963 9957 9951 9945 9940 9934 9929 9923 9917 9912 9906 9901 9896 9889 9883 9880 9878 9875 9870 9864 9860 9857 9853 9849 9844 9839 9835 9831 9827 9822 9817 9813 9810 9806 9802 9797 9793 9790 9788 9788 9789 9786 9781 9774 9768 9763 9761
10116 10111 10108 10103 10098 10094 10089 10085 10081 10077 10074 10070 10066 10062 10058 10055 10051 10047 10043 10039 10033 10028 10024 10021 10017 10011 10006 10003 9999 9994 9989 9984 9980 9975 9970 9965 9960 9955 9950 9944 9938 9932 9927 9921 9916 9910 9905 9900 9894 9888 9883 9877 9872 9867 9865 9862 9858 9853 9849 9845 9841 9837 9832 9827 9824 9820 9815 9810 9804 9799 9796 9793 9790 9785 9781 9778 9775 9774 9775 9774 9770 9764 9757 9749 9745
10102 10096 10091 10087 10084 10080 10075 10070 10066 10063 10059 10055 10051 10046 10043 10040 10037 10033 10030 10024 10019 10015 10012 10008 10002 9998 9993 9990 9986 9981 9976 9971 9966 9962 9957 9952 9947 9941 9937 9931 9925 9920 9914 9909 9904 9898 9892 9887 9881 9875 9870 9865 9860 9854 9850 9848 9845 9841 9838 9834 9830 9826 9821 9817 9813 9810 9804 9798 9792 9787 9782 9779 9777 9773 9768 9765 9763 9761 9761 9760 9757 9753 9747 9738 9733
10088 10083 10077 10072 10069 10064 10060 10056 10051 10048 10044 10040 10035 10032 10029 10026 10023 10020 10016 10010 10006 10003 9998 9993 9989 9985 9981 9977 9973 9968 9963 9958 9953 9949 9944 9939 9933 9928 9924 9918 9913 9907 9902 9897 9892 9887 9881 9874 9868 9863 9857 9852 9848 9843 9837 9834 9831 9829 9826 9823 9820 9815 9811 9807 9804 9799 9794 9787 9781 9775 9771 9766 9763 9760 9756 9752 9749 9748 9749 9748 9744 9740 9735 9728 9723
10073 10068 10062 10057 10053 10049 10044 10040 10036 10033 10029 10024 10020 10017 10015 10012 10009 10005 10001 9997 9993 9989 9984 9979 9975 9971 9968 9964 9959 9954 9949 9944 9939 9935 9931 9926 9920 9916 9911 9906 9900 9895 9891 9885 9880 9875 9870 9863 9856 9851 9846 9841 9837 9833 9827 9821 9819 9816 9813 9810 9808 9804 9800 9798 9795 9789 9782 9776 9770 9765 9760 9755 9750 9746 9742 9738 9736 9735 9736 9736 9733 9728 9722 9717 9713
10056 10051 10046 10041 10037 10033 10028 10025 10021 10017 10013 10009 10005 10003 10000 9997 9994 9990 9986 9982 9978 9974 9969 9965 9961 9958 9955 9950 9946 9941 9936 9931 9927 9923 9918 9912 9907 9903 9898 9893 9888 9883 9879 9873 9868 9864 9859 9851 9844 9839 9834 9830 9826 9822 9816 9811 9807 9804 9801 9797 9795 9792 9789 9787 9785 9779 9772 9765 9760 9755 9750 9744 9739 9735 9729 9725 9723 9721 9721 9723 9722 9717 9711 9705 9700
10039 10033 10029 10024 10019 10016 10012 10009 10006 10002 9997 9994 9991 9988 9985 9982 9978 9975 9971 9968 9963 9959 9955 9951 9947 9945 9941 9937 9933 9928 9922 9918 9914 9910 9905 9900 9895 9890 9886 9880 9876 9871 9867 9862 9856 9851 9847 9840 9834 9828 9823 9819 9815 9810 9805 9800 9796 9792 9788 9785 9782 9779 9777 9775 9773 9768 9761 9755 9750 9744 9739 9734 9729 9725 9720 9715 9712 9709 9708 9708 9708 9705 9701 9695 9690
10021 10016 10012 10007 10002 9999 9996 9993 9990 9986 9982 9979 9976 9973 9970 9967 9963 9960 9957 9953 9949 9945 9941 9937 9934 9932 9928 9923 9919 9915 9910 9906 9902 9897 9892 9887 9883 9878 9873 9868 9863 9859 9855 9850 9845 9840 9835 9830 9824 9818 9813 9808 9804 9799 9793 9789 9785 9781 9776 9772 9770 9768 9764 9762 9760 9756 9751 9745 9740 9734 9728 9723 9718 9715 9710 9705 9701 9698 9697 9696 9694 9692 9689 9685 9681
10002 9999 9994 9990 9986 9983 9981 9977 9974 9970 9967 9965 9962 9958 9955 9952 9948 9946 9942 9939 9936 9932 9927 9924 9922 9919 9915 9911 9906 9902 9898 9894 9889 9885 9880 9875 9870 9865 9861 9856 9852 9847 9843 9838 9833 9829 9825 9820 9815 9809 9803 9797 9792 9788 9782 9778 9774 9769 9764 9760 9758 9755 9752 9748 9746 9742 9739 9735 9730 9724 9718 9713 9708 9705 9700 9696 9691 9687 9685 9684 9683 9681 9678 9674 9670
9985 9982 9978 9974 9970 9968 9965 9962 9959 9956 9953 9950 9947 9944 9941 9938 9935 9932 9929 9926 9923 9918 9914 9911 9909 9907 9903 9899 9894 9890 9886 9882 9877 9873 9868 9863 9858 9853 9849 9844 9840 9836 9832 9828 9823 9818 9813 9809 9805 9800 9793 9787 9782 9777 9771 9767 9763 9758 9752 9747 9745 9742 9739 9735 9732 9728 9725 9722 9717 9711 9706 9702 9698 9694 9690 9686 9682 9678 9674 9672 9671 9671 9668 9663 9660
9969 9965 9961 9958 9955 9952 9950 9947 9945 9942 9938 9935 9933 9930 9927 9924 9921 9918 9916 9913 9910 9905 9902 9899 9897 9895 9891 9887 9883 9879 9874 9869 9865 9861 9857 9852 9847 9842 9837 9832 9828 9825 9822 9817 9812 9807 9802 9798 9794 9789 9783 9778 9772 9766 9761 9757 9752 9746 9741 9737 9734 9730 9726 9723 9719 9716 9713 9709 9703 9697 9693 9689 9685 9682 9679 9676 9673 9669 9665 9662 9660 9660 9658 9654 9650
9954 9950 9947 9943 9940 9938 9935 9932 9930 9928 9924 9921 9919 9917 9914 9911 9908 9905 9903 9900 9897 9893 9889 9887 9885 9883 9880 9876 9871 9866 9862 9858 9854 9850 9845 9840 9835 9831 9827 9821 9816 9813 9811 9806 9801 9797 9792 9788 9785 9779 9773 9768 9763 9756 9752 9747 9742 9736 9731 9727 9723 9718 9713 9709 9706 9703 9702 9698 9693 9689 9686 9680 9675 9671 9667 9664 9663 9660 9655 9652 9650 9649 9648 9645 9642
9940 9936 9933 9930 9927 9924 9921 9919 9917 9914 9911 9908 9906 9903 9900 9897 9895 9892 9890 9887 9884 9880 9877 9875 9874 9871 9868 9864 9859 9854 9850 9847 9843 9839 9834 9829 9825 9820 9816 9811 9805 9802 9799 9795 9791 9787 9782 9779 9776 9770 9764 9760 9754 9747 9742 9738 9732 9726 9722 9718 9714 9709 9704 9699 9695 9693 9690 9684 9679 9677 9673 9669 9666 9663 9657 9653 9652 9650 9646 9642 9640 9639 9637 9635 9633
9927 9924 9921 9917 9915 9912 9909 9907 9905 9902 9899 9896 9893 9890 9887 9885 9883 9880 9878 9875 9872 9868 9866 9864 9863 9860 9856 9852 9848 9843 9840 9836 9832 9828 9824 9819 9814 9809 9805 9801 9795 9791 9787 9784 9780 9777 9772 9769 9766 9761 9754 9750 9745 9738 9733 9728 9723 9718 9714 9711 9707 9702 9697 9693 9689 9686 9681 9674 9668 9666 9660 9654 9654 9653 9649 9644 9642 9639 9636 9634 9631 9629 9627 9625 9623
9916 9913 9909 9906 9903 9900 9898 9896 9893 9890 9887 9883 9880 9878 9876 9873 9871 9869 9866 9863 9860 9857 9855 9854 9851 9848 9844 9841 9837 9833 9829 9825 9821 9818 9814 9809 9804 9799 9794 9790 9786 9781 9777 9772 9768 9765 9762 9759 9757 9752 9746 9741 9735 9729 9723 9718 9713 9708 9703 9699 9695 9690 9686 9683 9680 9677 9673 9666 9661 9659 9653 9646 9643 9642 9639 9635 9633 9629 9627 9625 9622 9620 9618 9616 9614